^^
Station Historical Data
Daily Summary for February 5, 2017 Units:  English    Metric   Both
« Previous Day
Next Day »
Daily Weekly Monthly Yearly Custom
  High: Low: Average:
Temperature: 39.9 °F 27.4 °F 33.2 °F
Dew Point: 25.6 °F 11.3 °F 19.1 °F
Humidity: 68% 48% 56%
Wind Speed: 8.0mph 0.0mph 2.6mph
Wind Gust: 21.0mph - -
Wind- - SSW
Pressure: 30.27 in 29.85 in -
Precipitation: 0.00 in    
Historical Graphs
 
 
Tabular Data for February 5, 2017
Time Temperature Dew Point Pressure Wind Wind Speed Wind Gust Humidity Rainfall Rate (Hourly) Conditions
00:00 27.9 °F 11.6 °F 30.27 in SW 1.0 mph 5.0 mph 50% 0.00 in CLR
00:10 28.1 °F 11.3 °F 30.27 in SSW 1.0 mph 5.0 mph 49% 0.00 in FEW
00:20 28.1 °F 11.4 °F 30.27 in SSW 2.0 mph 6.0 mph 49% 0.00 in FEW
00:30 28.0 °F 11.3 °F 30.26 in SW 2.0 mph 6.0 mph 49% 0.00 in FEW
00:40 28.1 °F 11.4 °F 30.27 in SW 3.0 mph 8.0 mph 49% 0.00 in FEW
00:50 28.2 °F 11.5 °F 30.26 in SSW 1.0 mph 7.0 mph 49% 0.00 in FEW
01:00 28.2 °F 11.5 °F 30.25 in Calm   4.0 mph 49% 0.00 in FEW
01:10 28.1 °F 11.4 °F 30.25 in South 1.0 mph 5.0 mph 49% 0.00 in FEW
01:20 28.1 °F 11.4 °F 30.26 in SW 2.0 mph 6.0 mph 49% 0.00 in FEW
01:30 28.1 °F 11.4 °F 30.26 in SW 1.0 mph 8.0 mph 49% 0.00 in FEW
01:40 27.9 °F 11.6 °F 30.25 in Calm   4.0 mph 50% 0.00 in FEW
01:50 27.8 °F 11.5 °F 30.25 in Calm   5.0 mph 50% 0.00 in FEW
02:00 27.7 °F 11.5 °F 30.25 in SW 1.0 mph 4.0 mph 50% 0.00 in FEW
02:10 27.5 °F 11.7 °F 30.25 in Calm   5.0 mph 51% 0.00 in SCT
02:20 27.4 °F 11.6 °F 30.24 in SSW 1.0 mph 6.0 mph 51% 0.00 in SCT
02:30 27.4 °F 11.6 °F 30.24 in South 1.0 mph 4.0 mph 51% 0.00 in SCT
02:40 27.6 °F 11.8 °F 30.24 in SSW 1.0 mph 4.0 mph 51% 0.00 in SCT
02:50 27.6 °F 11.8 °F 30.23 in Calm   6.0 mph 51% 0.00 in SCT
03:00 27.6 °F 11.8 °F 30.23 in SSE 2.0 mph 5.0 mph 51% 0.00 in SCT
03:10 27.8 °F 11.5 °F 30.22 in Calm   4.0 mph 50% 0.00 in SCT
03:20 27.9 °F 11.6 °F 30.21 in Calm   5.0 mph 50% 0.00 in SCT
03:30 27.9 °F 11.6 °F 30.20 in South 1.0 mph 3.0 mph 50% 0.00 in SCT
03:40 27.8 °F 11.6 °F 30.20 in South 1.0 mph 5.0 mph 50% 0.00 in SCT
03:50 27.9 °F 11.6 °F 30.20 in South 1.0 mph 5.0 mph 50% 0.00 in SCT
04:00 28.0 °F 12.2 °F 30.19 in SSW 2.0 mph 5.0 mph 51% 0.00 in SCT
04:10 28.1 °F 12.3 °F 30.19 in South 1.0 mph 4.0 mph 51% 0.00 in SCT
04:20 28.3 °F 12.4 °F 30.18 in SSW 1.0 mph 5.0 mph 51% 0.00 in SCT
04:30 28.4 °F 13.0 °F 30.17 in South 2.0 mph 5.0 mph 52% 0.00 in SCT
04:40 28.8 °F 13.4 °F 30.17 in SSW 3.0 mph 12.0 mph 52% 0.00 in SCT
04:50 29.0 °F 13.6 °F 30.17 in South 3.0 mph 7.0 mph 52% 0.00 in SCT
05:00 29.4 °F 14.4 °F 30.16 in South 2.0 mph 7.0 mph 53% 0.00 in SCT
05:10 29.7 °F 14.7 °F 30.16 in SSW 3.0 mph 9.0 mph 53% 0.00 in SCT
05:20 30.0 °F 15.3 °F 30.15 in South 6.0 mph 12.0 mph 54% 0.00 in SCT
05:30 30.1 °F 15.4 °F 30.14 in SSW 5.0 mph 10.0 mph 54% 0.00 in SCT
05:40 30.3 °F 15.2 °F 30.14 in SSW 2.0 mph 12.0 mph 53% 0.00 in SCT
05:50 30.4 °F 15.7 °F 30.13 in SSW 2.0 mph 9.0 mph 54% 0.00 in SCT
06:00 30.1 °F 15.9 °F 30.14 in SSW 2.0 mph 7.0 mph 55% 0.00 in SCT
06:10 30.0 °F 16.2 °F 30.13 in South 5.0 mph 10.0 mph 56% 0.00 in SCT
06:20 29.9 °F 16.5 °F 30.12 in SSW 6.0 mph 9.0 mph 57% 0.00 in SCT
06:30 29.8 °F 16.4 °F 30.12 in SSW 7.0 mph 12.0 mph 57% 0.00 in SCT
06:40 29.7 °F 16.7 °F 30.12 in South 5.0 mph 12.0 mph 58% 0.00 in SCT
06:50 29.6 °F 17.4 °F 30.11 in SSW 5.0 mph 9.0 mph 60% 0.00 in SCT
07:10 29.5 °F 18.1 °F 30.11 in South 5.0 mph 12.0 mph 62% 0.00 in SCT
07:20 29.5 °F 18.4 °F 30.10 in South 2.0 mph 9.0 mph 63% 0.00 in SCT
07:30 29.6 °F 18.9 °F 30.09 in South 2.0 mph 16.0 mph 64% 0.00 in SCT
07:50 30.1 °F 19.7 °F 30.08 in SSW 5.0 mph 16.0 mph 65% 0.00 in SCT
08:00 30.4 °F 20.0 °F 30.08 in SSW 3.0 mph 13.0 mph 65% 0.00 in SCT
08:10 30.7 °F 20.3 °F 30.08 in SSW 3.0 mph 13.0 mph 65% 0.00 in SCT
08:20 30.9 °F 20.2 °F 30.08 in SW 6.0 mph 15.0 mph 64% 0.00 in SCT
08:50 31.4 °F 20.6 °F 30.06 in South 8.0 mph 15.0 mph 64% 0.00 in SCT
09:00 31.5 °F 20.7 °F 30.06 in SSW 7.0 mph 21.0 mph 64% 0.00 in SCT
09:10 31.8 °F 21.0 °F 30.06 in SSW 3.0 mph 13.0 mph 64% 0.00 in BKN
09:20 31.8 °F 21.0 °F 30.05 in SSW 5.0 mph 13.0 mph 64% 0.00 in BKN
09:30 32.0 °F 21.2 °F 30.05 in SSW 5.0 mph 11.0 mph 64% 0.00 in BKN
10:00 32.0 °F 20.8 °F 30.05 in SSW 7.0 mph 15.0 mph 63% 0.00 in BKN
10:20 32.0 °F 21.2 °F 30.03 in SW 2.0 mph 13.0 mph 64% 0.00 in BKN
10:30 32.3 °F 21.1 °F 30.02 in SW 2.0 mph 9.0 mph 63% 0.00 in BKN
10:40 32.6 °F 21.4 °F 30.02 in SW 1.0 mph 7.0 mph 63% 0.00 in BKN
10:50 32.4 °F 21.2 °F 30.02 in SSW 3.0 mph 10.0 mph 63% 0.00 in BKN
11:00 32.4 °F 20.8 °F 30.02 in WSW 3.0 mph 5.0 mph 62% 0.00 in BKN
11:20 32.5 °F 20.9 °F 30.00 in SW 5.0 mph 8.0 mph 62% 0.00 in BKN
11:30 32.8 °F 20.8 °F 29.99 in SW 2.0 mph 8.0 mph 61% 0.00 in BKN
11:40 33.0 °F 21.0 °F 29.97 in SW 1.0 mph 6.0 mph 61% 0.00 in BKN
11:50 33.1 °F 20.7 °F 29.96 in SSW 2.0 mph 6.0 mph 60% 0.00 in BKN
12:00 33.2 °F 20.4 °F 29.96 in South 2.0 mph 8.0 mph 59% 0.00 in BKN
12:10 33.8 °F 20.9 °F 29.96 in SW 1.0 mph 7.0 mph 59% 0.00 in BKN
12:20 34.0 °F 21.1 °F 29.96 in SW 2.0 mph 8.0 mph 59% 0.00 in BKN
12:30 34.3 °F 21.0 °F 29.96 in SW 3.0 mph 8.0 mph 58% 0.00 in BKN
12:40 34.3 °F 21.1 °F 29.95 in SSW 2.0 mph 9.0 mph 58% 0.00 in BKN
12:50 34.4 °F 21.1 °F 29.94 in SW 1.0 mph 10.0 mph 58% 0.00 in BKN
13:00 34.6 °F 21.3 °F 29.93 in WSW 1.0 mph 7.0 mph 58% 0.00 in BKN
13:10 34.3 °F 20.6 °F 29.92 in SW 3.0 mph 7.0 mph 57% 0.00 in BKN
13:20 34.4 °F 20.3 °F 29.91 in SSW 3.0 mph 7.0 mph 56% 0.00 in BKN
13:30 34.4 °F 20.7 °F 29.92 in SW 3.0 mph 9.0 mph 57% 0.00 in BKN
13:40 34.4 °F 21.6 °F 29.91 in SW 1.0 mph 7.0 mph 59% 0.00 in BKN
13:50 34.8 °F 21.5 °F 29.90 in SW 3.0 mph 8.0 mph 58% 0.00 in BKN
14:00 34.9 °F 22.4 °F 29.89 in SW 5.0 mph 10.0 mph 60% 0.00 in BKN
14:10 35.3 °F 23.6 °F 29.88 in SW 3.0 mph 7.0 mph 62% 0.00 in BKN
14:20 35.1 °F 25.2 °F 29.87 in SW 2.0 mph 12.0 mph 67% 0.00 in BKN
14:40 34.8 °F 25.3 °F 29.86 in SW 1.0 mph 9.0 mph 68% 0.00 in BKN
14:50 34.9 °F 25.4 °F 29.85 in WSW 1.0 mph 5.0 mph 68% 0.00 in BKN
15:00 35.1 °F 25.6 °F 29.85 in WSW 2.0 mph 7.0 mph 68% 0.00 in BKN
15:10 35.6 °F 25.3 °F 29.86 in WSW 2.0 mph 6.0 mph 66% 0.00 in BKN
15:20 35.5 °F 25.6 °F 29.85 in SW 1.0 mph 6.0 mph 67% 0.00 in BKN
15:30 35.7 °F 25.5 °F 29.86 in SW 1.0 mph 5.0 mph 66% 0.00 in BKN
15:40 36.2 °F 25.6 °F 29.86 in SW 1.0 mph 4.0 mph 65% 0.00 in BKN
15:50 36.3 °F 25.3 °F 29.86 in SW 1.0 mph 5.0 mph 64% 0.00 in BKN
16:00 36.5 °F 24.7 °F 29.86 in SW 2.0 mph 6.0 mph 62% 0.00 in BKN
16:10 36.6 °F 24.0 °F 29.86 in SW 2.0 mph 4.0 mph 60% 0.00 in BKN
16:30 37.3 °F 22.6 °F 29.86 in SSW 2.0 mph 6.0 mph 55% 0.00 in BKN
16:40 37.7 °F 21.6 °F 29.86 in SSW 3.0 mph 7.0 mph 52% 0.00 in BKN
16:50 38.2 °F 20.7 °F 29.86 in SSW 5.0 mph 10.0 mph 49% 0.00 in BKN
17:00 38.1 °F 20.1 °F 29.86 in SW 3.0 mph 10.0 mph 48% 0.00 in BKN
17:10 37.5 °F 20.1 °F 29.86 in SW 3.0 mph 9.0 mph 49% 0.00 in SCT
17:20 37.1 °F 20.2 °F 29.87 in SSW 3.0 mph 9.0 mph 50% 0.00 in SCT
17:30 37.1 °F 20.6 °F 29.87 in SW 2.0 mph 8.0 mph 51% 0.00 in SCT
17:40 37.2 °F 20.7 °F 29.87 in SSW 2.0 mph 6.0 mph 51% 0.00 in SCT
17:50 37.2 °F 20.7 °F 29.88 in SW 5.0 mph 8.0 mph 51% 0.00 in SCT
18:00 37.0 °F 20.5 °F 29.88 in SW 2.0 mph 9.0 mph 51% 0.00 in SCT
18:10 36.8 °F 20.8 °F 29.88 in SW 2.0 mph 8.0 mph 52% 0.00 in BKN
18:20 36.7 °F 20.7 °F 29.88 in SW 6.0 mph 9.0 mph 52% 0.00 in BKN
18:30 36.6 °F 20.6 °F 29.89 in SSW 2.0 mph 10.0 mph 52% 0.00 in BKN
18:40 36.5 °F 20.5 °F 29.89 in SW 2.0 mph 10.0 mph 52% 0.00 in BKN
18:50 36.4 °F 20.4 °F 29.90 in SW 3.0 mph 9.0 mph 52% 0.00 in BKN
19:00 36.3 °F 20.8 °F 29.90 in SW 3.0 mph 13.0 mph 53% 0.00 in BKN
19:10 36.1 °F 20.6 °F 29.90 in SSW 3.0 mph 8.0 mph 53% 0.00 in CLR
19:20 36.2 °F 21.1 °F 29.91 in SW 2.0 mph 12.0 mph 54% 0.00 in CLR
19:30 36.4 °F 20.9 °F 29.91 in SW 2.0 mph 10.0 mph 53% 0.00 in CLR
19:40 36.5 °F 21.0 °F 29.91 in SW 2.0 mph 10.0 mph 53% 0.00 in CLR
19:50 36.6 °F 21.1 °F 29.91 in SW 5.0 mph 9.0 mph 53% 0.00 in CLR
20:00 36.6 °F 21.1 °F 29.91 in SW 5.0 mph 9.0 mph 53% 0.00 in CLR
20:10 36.6 °F 21.1 °F 29.91 in SW 2.0 mph 8.0 mph 53% 0.00 in BKN
20:20 36.5 °F 21.0 °F 29.91 in SSW 2.0 mph 6.0 mph 53% 0.00 in BKN
20:30 36.5 °F 21.4 °F 29.91 in SW 2.0 mph 10.0 mph 54% 0.00 in BKN
20:40 36.7 °F 21.6 °F 29.90 in SSW 2.0 mph 7.0 mph 54% 0.00 in BKN
20:50 36.8 °F 21.7 °F 29.90 in SW 3.0 mph 9.0 mph 54% 0.00 in BKN
21:00 36.9 °F 21.8 °F 29.90 in SW 6.0 mph 12.0 mph 54% 0.00 in BKN
21:10 37.0 °F 21.9 °F 29.91 in SW 2.0 mph 10.0 mph 54% 0.00 in BKN
21:20 37.1 °F 22.4 °F 29.91 in SW 1.0 mph 9.0 mph 55% 0.00 in BKN
21:30 37.1 °F 22.4 °F 29.91 in SW 3.0 mph 9.0 mph 55% 0.00 in BKN
21:40 37.1 °F 22.8 °F 29.91 in SW 1.0 mph 9.0 mph 56% 0.00 in BKN
21:50 37.2 °F 23.4 °F 29.91 in SW 2.0 mph 9.0 mph 57% 0.00 in BKN
22:00 37.5 °F 23.6 °F 29.91 in SSW 6.0 mph 12.0 mph 57% 0.00 in BKN
22:10 37.6 °F 23.7 °F 29.92 in SSW 3.0 mph 9.0 mph 57% 0.00 in BKN
22:20 37.8 °F 23.9 °F 29.92 in SW 3.0 mph 12.0 mph 57% 0.00 in BKN
22:30 38.0 °F 24.1 °F 29.92 in SW 2.0 mph 12.0 mph 57% 0.00 in BKN
22:40 38.2 °F 24.7 °F 29.92 in SSW 2.0 mph 9.0 mph 58% 0.00 in BKN
22:50 38.5 °F 25.0 °F 29.93 in WSW 3.0 mph 8.0 mph 58% 0.00 in BKN
23:00 38.8 °F 24.8 °F 29.93 in SW 5.0 mph 9.0 mph 57% 0.00 in BKN
23:10 38.9 °F 24.9 °F 29.93 in West 3.0 mph 9.0 mph 57% 0.00 in BKN
23:20 39.1 °F 25.1 °F 29.93 in SW 2.0 mph 9.0 mph 57% 0.00 in BKN
23:30 39.2 °F 25.2 °F 29.93 in WSW 5.0 mph 12.0 mph 57% 0.00 in BKN
23:40 39.4 °F 25.0 °F 29.93 in WSW 2.0 mph 15.0 mph 56% 0.00 in BKN
23:50 39.9 °F 24.6 °F 29.93 in WSW 7.0 mph 18.0 mph 54% 0.00 in BKN
TarryTown NY Weather
Compliments of Weather Underground - 1.75 mb